TimeEDT,TemperatureF,Dew PointF,Humidity,Sea Level PressureIn,VisibilityMPH,Wind Direction,Wind SpeedMPH,Gust SpeedMPH,PrecipitationIn,Events,Conditions,WindDirDegrees,DateUTC
12:18 AM,39.2,35.6,87,30.28,10.0,SE,6.9,-,N/A,,Overcast,130,2013-03-11 04:18:00
12:38 AM,39.2,35.6,87,30.28,10.0,SE,6.9,-,N/A,,Overcast,140,2013-03-11 04:38:00
12:58 AM,39.2,37.4,93,30.27,7.0,SE,6.9,-,N/A,,Overcast,140,2013-03-11 04:58:00
1:18 AM,39.2,37.4,93,30.27,5.0,SE,8.1,-,N/A,,Overcast,130,2013-03-11 05:18:00
1:38 AM,39.2,37.4,93,30.27,5.0,SSE,5.8,-,N/A,,Overcast,150,2013-03-11 05:38:00
1:58 AM,39.2,37.4,93,30.27,5.0,SSE,4.6,-,N/A,,Overcast,150,2013-03-11 05:58:00
2:18 AM,39.2,37.4,93,30.26,4.0,SE,5.8,-,N/A,,Overcast,140,2013-03-11 06:18:00
2:38 AM,39.2,37.4,93,30.25,5.0,SE,6.9,-,N/A,,Overcast,130,2013-03-11 06:38:00
2:58 AM,39.2,37.4,93,30.25,5.0,SE,5.8,-,N/A,,Overcast,140,2013-03-11 06:58:00
3:18 AM,39.2,37.4,93,30.24,5.0,SE,6.9,-,N/A,,Overcast,140,2013-03-11 07:18:00
3:39 AM,37.4,35.6,93,30.23,5.0,ESE,5.8,-,N/A,,Overcast,120,2013-03-11 07:39:00
3:59 AM,37.4,37.4,100,30.23,7.0,SSE,3.5,-,N/A,,Overcast,160,2013-03-11 07:59:00
4:19 AM,37.4,35.6,93,30.23,5.0,SE,3.5,-,N/A,,Overcast,140,2013-03-11 08:19:00
4:39 AM,39.2,37.4,93,30.21,7.0,SE,5.8,-,N/A,,Overcast,140,2013-03-11 08:39:00
4:59 AM,37.4,35.6,93,30.21,7.0,SSE,4.6,-,N/A,,Overcast,150,2013-03-11 08:59:00
5:19 AM,37.4,37.4,100,30.21,5.0,SE,3.5,-,N/A,,Overcast,140,2013-03-11 09:19:00
5:39 AM,39.2,37.4,93,30.21,5.0,Calm,Calm,-,N/A,,Overcast,0,2013-03-11 09:39:00
5:59 AM,37.4,37.4,100,30.21,3.0,SE,4.6,-,N/A,,Overcast,130,2013-03-11 09:59:00
6:59 AM,35.6,35.6,100,30.20,1.0,SE,3.5,-,N/A,,Overcast,130,2013-03-11 10:59:00
7:19 AM,35.6,35.6,100,30.20,0.5,Calm,Calm,-,N/A,,Overcast,0,2013-03-11 11:19:00
7:39 AM,35.6,33.8,93,30.22,0.2,Calm,Calm,-,N/A,,Overcast,0,2013-03-11 11:39:00
7:59 AM,35.6,33.8,93,30.22,0.2,SE,3.5,-,N/A,,Overcast,130,2013-03-11 11:59:00
8:19 AM,35.6,35.6,100,30.21,0.8,Calm,Calm,-,N/A,,Overcast,0,2013-03-11 12:19:00
8:39 AM,37.4,35.6,93,30.20,1.2,East,4.6,-,N/A,,Overcast,100,2013-03-11 12:39:00
8:59 AM,41.0,39.2,93,30.20,2.0,SE,4.6,-,N/A,,Overcast,140,2013-03-11 12:59:00
9:19 AM,42.8,41.0,93,30.21,7.0,Calm,Calm,-,N/A,,Overcast,0,2013-03-11 13:19:00
9:39 AM,46.4,44.6,93,30.21,7.0,South,5.8,-,N/A,,Overcast,180,2013-03-11 13:39:00
9:59 AM,46.4,44.6,93,30.21,10.0,South,5.8,-,N/A,,Overcast,180,2013-03-11 13:59:00
10:19 AM,50.0,46.4,87,30.21,10.0,South,8.1,-,N/A,,Overcast,170,2013-03-11 14:19:00
10:59 AM,50.0,44.6,82,30.19,10.0,SSE,9.2,16.1,N/A,,Scattered Clouds,160,2013-03-11 14:59:00
11:19 AM,51.8,44.6,76,30.18,10.0,South,9.2,16.1,N/A,,Clear,170,2013-03-11 15:19:00
11:39 AM,53.6,46.4,77,30.18,10.0,South,9.2,17.3,N/A,,Clear,170,2013-03-11 15:39:00
11:59 AM,53.6,44.6,72,30.18,10.0,South,9.2,18.4,N/A,,Clear,180,2013-03-11 15:59:00
12:19 PM,53.6,44.6,72,30.18,10.0,South,9.2,-,N/A,,Clear,190,2013-03-11 16:19:00
12:40 PM,55.4,44.6,67,30.17,10.0,South,10.4,18.4,N/A,,Clear,190,2013-03-11 16:40:00
1:00 PM,55.4,46.4,72,30.17,10.0,South,11.5,-,N/A,,Clear,170,2013-03-11 17:00:00
1:20 PM,55.4,46.4,72,30.15,10.0,SSE,9.2,17.3,N/A,,Clear,160,2013-03-11 17:20:00
1:40 PM,55.4,46.4,72,30.14,10.0,South,9.2,-,N/A,,Clear,170,2013-03-11 17:40:00
2:00 PM,59.0,46.4,63,30.13,10.0,South,10.4,16.1,N/A,,Clear,190,2013-03-11 18:00:00
2:20 PM,57.2,44.6,63,30.12,10.0,South,9.2,18.4,N/A,,Clear,190,2013-03-11 18:20:00
2:40 PM,59.0,46.4,63,30.11,10.0,South,11.5,17.3,N/A,,Clear,170,2013-03-11 18:40:00
3:00 PM,59.0,46.4,63,30.10,10.0,SSE,10.4,19.6,N/A,,Clear,160,2013-03-11 19:00:00
3:20 PM,59.0,46.4,63,30.10,10.0,SSE,11.5,23.0,N/A,,Clear,160,2013-03-11 19:20:00
4:00 PM,59.0,46.4,63,30.09,10.0,SSE,13.8,19.6,N/A,,Clear,160,2013-03-11 20:00:00
4:20 PM,59.0,46.4,63,30.08,10.0,SSE,12.7,21.9,N/A,,Clear,160,2013-03-11 20:20:00
4:40 PM,59.0,46.4,63,30.07,10.0,SSE,12.7,20.7,N/A,,Clear,160,2013-03-11 20:40:00
5:20 PM,59.0,46.4,63,30.06,10.0,SSE,11.5,20.7,N/A,,Clear,160,2013-03-11 21:20:00
5:40 PM,59.0,46.4,63,30.05,10.0,SSE,12.7,18.4,N/A,,Clear,150,2013-03-11 21:40:00
6:00 PM,59.0,46.4,63,30.05,10.0,SE,17.3,23.0,N/A,,Clear,140,2013-03-11 22:00:00
6:20 PM,57.2,46.4,67,30.05,10.0,SSE,13.8,25.3,N/A,,Clear,160,2013-03-11 22:20:00
6:40 PM,55.4,46.4,72,30.05,10.0,SSE,10.4,18.4,N/A,,Clear,160,2013-03-11 22:40:00
7:00 PM,55.4,46.4,72,30.06,10.0,SSE,11.5,19.6,N/A,,Clear,160,2013-03-11 23:00:00
7:20 PM,55.4,46.4,72,30.06,10.0,SSE,11.5,18.4,N/A,,Mostly Cloudy,150,2013-03-11 23:20:00
7:40 PM,55.4,46.4,72,30.05,10.0,SSE,13.8,-,N/A,,Scattered Clouds,150,2013-03-11 23:40:00
8:00 PM,55.4,46.4,72,30.04,10.0,SE,16.1,21.9,N/A,,Clear,140,2013-03-12 00:00:00
8:20 PM,55.4,44.6,67,30.03,10.0,SSE,13.8,25.3,N/A,,Clear,150,2013-03-12 00:20:00
8:41 PM,53.6,44.6,72,30.02,10.0,SSE,15.0,19.6,N/A,,Clear,150,2013-03-12 00:41:00
10:01 PM,53.6,44.6,72,30.04,10.0,SSE,10.4,18.4,N/A,,Clear,160,2013-03-12 02:01:00
10:21 PM,53.6,44.6,72,30.04,10.0,SSE,12.7,19.6,N/A,,Clear,160,2013-03-12 02:21:00
10:41 PM,53.6,44.6,72,30.04,10.0,SSE,11.5,18.4,N/A,,Scattered Clouds,160,2013-03-12 02:41:00
11:01 PM,53.6,44.6,72,30.04,10.0,SSE,12.7,19.6,N/A,,Overcast,160,2013-03-12 03:01:00
11:21 PM,53.6,44.6,72,30.04,10.0,SSE,11.5,17.3,N/A,,Mostly Cloudy,160,2013-03-12 03:21:00
11:41 PM,53.6,44.6,72,30.04,10.0,SSE,12.7,20.7,N/A,,Mostly Cloudy,160,2013-03-12 03:41:00